sat.trackr.live / text

‹ back to catalog

STARLINK-32309

NORAD 61676 · 2024-193R

PAYLOAD ACTIVE UNKNOWN

§ Identity

Operator
Country
US
Launch date
2024-10-26
Launch site
AFETR
Launch vehicle
Mass (kg)
RCS (m²)

Purposes: comms

External: N2YO · Heavens-Above · Gunter

§ Orbital elements

Epoch: 2026-09-21T16:09:22.569696Z

Period
93.85 min
Inclination
53.1591°
Eccentricity
0.0001254
Mean motion
15.34392022 rev/d
Perigee alt
461.9 km
Apogee alt
463.6 km
Semi-major
6,840.9 km
B*
2.0749e-5
RAAN
256.3522°
Arg perigee
78.4467°
Mean anomaly
281.6676°
Rev number
10,659

§ Raw data

STARLINK-323091 61676U 24193R   26264.67317789  .00000325  00000+0  20749-4 0  99982 61676  53.1591 256.3522 0001254  78.4467 281.6676 15.34392022106593

JSON: /api/v1/satellites/61676 · /tle

For live sub-satellite position, see the globe view (requires WebGL).

§ Visibility from observer

Set your observer location to see the next 7 days of passes ≥ 10°. The values pass through the URL so the page stays shareable.

No JS? Fill the form by hand. The geolocation button needs JavaScript.